Regional Weather Roundup
Issued by NWS

Home | Current Version | Previous Version | Text Only | Print | Product List | Glossary Off
Versions: 1 2 3 4 5 6 7 8 9 10 11 12 13 14 15 16 17 18 19 20 21 22 23 24 25 26 27 28 29 30 31 32 33 34 35 36 37 38 39 40 41 42 43 44 45 46 47 48 49 50

000
ASUS43 KLOT 210610
RWRIL

ILLINOIS REGIONAL WEATHER ROUNDUP
NATIONAL WEATHER SERVICE CHICAGO/ROMEOVILLE IL
100 AM CDT TUE OCT 21 2014

NOTE: "FAIR" INDICATES FEW OR NO CLOUDS BELOW 12,000 FEET WITH NO
SIGNIFICANT WEATHER AND/OR OBSTRUCTIONS TO VISIBILITY.

* THESE STATIONS ARE NOT UNDER NWS QUALITY CONTROL. THEY ALSO MAY NOT
  REPORT WEATHER SUCH AS PRECIPITATION OR FOG.

ILZ001-002-007-009-015-016-024-210700-
NORTHWEST ILLINOIS

CITY           SKY/WX    TMP DP  RH WIND       PRES   REMARKS
MOLINE         CLEAR     43  40  89 CALM      30.04R
6HR MIN TEMP:  41; 6HR MAX TEMP:  61;

STERLING*      CLEAR     43  37  81 CALM      30.04R
SAVANNA*       CLEAR     42  40  93 CALM      30.04S
$$

ILZ003-004-008-010-011-017-018-210700-
NORTH CENTRAL ILLINOIS

CITY           SKY/WX    TMP DP  RH WIND       PRES   REMARKS
ROCKFORD       MOCLDY    47  40  76 NW7       30.05R
6HR MIN TEMP:  47; 6HR MAX TEMP:  56;

FREEPORT*      CLOUDY    46  41  83 CALM      30.06R
ROCHELLE*      CLOUDY    45  41  87 CALM      30.03R
DE KALB*       CLOUDY    47  41  78 NW6       30.03R
PERU*          MOCLDY    44  39  82 NW5       30.03R
$$

ILZ005-006-012>014-019>023-210700-
NORTHEAST ILLINOIS

CITY           SKY/WX    TMP DP  RH WIND       PRES   REMARKS
CHICAGO-OHARE  CLOUDY    51  42  71 N6        30.00R
6HR MIN TEMP:  51; 6HR MAX TEMP:  55;

CHICAGO-MIDWAY MOCLDY    53  45  74 N9        30.00R
6HR MIN TEMP:  53; 6HR MAX TEMP:  57;

AURORA         MOCLDY    48  40  73 N7        30.02R
6HR MIN TEMP:  47; 6HR MAX TEMP:  56;

LANSING*       CLOUDY    52  46  81 N8        29.99S
JOLIET*        MOCLDY    50  41  70 CALM      30.01R
WAUKEGAN       CLOUDY    49  43  80 VRB5      30.00R
6HR MIN TEMP:  49; 6HR MAX TEMP:  52;

DUPAGE AIRPORT CLOUDY    51  42  71 N6        30.01R
6HR MIN TEMP:  50; 6HR MAX TEMP:  56;

KANKAKEE*      CLOUDY    52  47  84 CALM      30.01R
WHEELING       CLOUDY    52  43  71 N5        30.02R
6HR MIN TEMP:  52; 6HR MAX TEMP:  56;

MORRIS*        CLOUDY    47  44  87 CALM      30.00R
ROMEOVILLE*    CLOUDY    51  41  69 N5        30.01R
NORTHERLY ISL    N/A     53  43  68 N13         N/A
$$

LMZ740>746-210700-
SOUTHERN LAKE MICHIGAN

STATION/POSITION SKY/WX   TEMP    WIND        PRES    VSBY  WAVE
                          AIR SEA DIR/SP/G                  HT/PER
                          (F)     (DEG/KT/KT) (MB)    (MI)  (FT/S)
SOUTHERN BUOY              51 54  350/ 17/ 19 1015.4R         4/ 5
WAUKEGAN HARBOR            51     340/  5/  7   N/A
HARRISON CRIB              53     350/ 18/ 21   N/A
BURNHAM HARBOR             53     340/ 10/ 13   N/A
CALUMET HARBOR             53     340/  9/ 14 1014.5S
MICHIGAN CITY              53     340/ 22/ 25   N/A
$$

ILZ025>027-034>036-040-047-049-050-058-095>099-210700-
WEST-CENTRAL ILLINOIS

CITY           SKY/WX    TMP DP  RH WIND       PRES   REMARKS
QUINCY         CLEAR     51  43  74 NW6       30.02S
GALESBURG*     CLEAR     43  40  89 CALM      30.03R
MACOMB*        CLEAR     47  42  84 N6        30.05R
JACKSONVILLE*  CLEAR     49  44  80 W7        30.01S
PITTSFIELD*    CLEAR     49  44  81 W5        30.03S
$$

ILZ028>032-037-038-041>044-048-051>054-059>061-210700-
CENTRAL ILLINOIS

CITY           SKY/WX    TMP DP  RH WIND       PRES   REMARKS
PONTIAC        CLOUDY    48  46  93 CALM      30.01S
BLOOMINGTON    CLEAR     47  43  86 N3        30.02S
DECATUR        CLEAR     48  42  80 N5        30.01S
PEORIA         CLEAR     49  42  77 CALM      30.03R
6HR MIN TEMP:  49; 6HR MAX TEMP:  62;

LACON*         CLEAR     40  38  93 CALM      30.02S
LINCOLN*       CLEAR     48  43  83 N3        30.00S
SPRINGFIELD    CLEAR     45  41  86 N5        30.01R
6HR MIN TEMP:  45; 6HR MAX TEMP:  60;

TAYLORVILLE    CLEAR     46  43  87 CALM      30.00S
$$

ILZ033-039-045-046-055>057-062-063-210700-
EAST-CENTRAL ILLINOIS

CITY           SKY/WX    TMP DP  RH WIND       PRES   REMARKS
CHAMPAIGN      CLEAR     48  45  89 CALM      30.00S
DANVILLE*      CLOUDY    50  47  91 N3        29.97S
RANTOUL*       PTCLDY    49  45  86 CALM      30.01S
MATTOON        CLEAR     48  42  80 CALM      29.99S
PARIS*         CLOUDY    49  47  91 CALM      30.00S
$$

ILZ079-100>102-210700-
SOUTHWEST ILLINOIS

CITY           SKY/WX    TMP DP  RH WIND       PRES   REMARKS
ALTON          CLEAR     48  44  84 CALM      30.01S
BELLEVILLE     CLEAR     46  44  93 SW2       30.01S
CAHOKIA*       CLEAR     47  45  93 CALM      30.02S
SPARTA*        CLEAR     53  44  71 W3        30.02F
$$

ILZ064>066-069>071-074>076-080>082-084>086-088>090-092>094-210700-
SOUTH-CENTRAL ILLINOIS

CITY           SKY/WX    TMP DP  RH WIND       PRES   REMARKS
CARBONDALE     CLEAR     46  43  89 CALM      30.02S
6HR MIN TEMP:  45; 6HR MAX TEMP:  64;

CAIRO*         FOG       51  49  90 CALM      30.03R VSB 1/2
EFFINGHAM*     CLEAR     46  42  86 CALM      29.99S
MARION         CLEAR     50  46  87 CALM      30.02S
MT. VERNON     CLEAR     45  39  81 CALM      30.01S
CENTRALIA*     CLEAR     48  43  81 CALM      30.00S
SALEM*         CLEAR     50  46  86 CALM      30.01S
METROPOLIS*    CLEAR     50  50 100 CALM      30.01S
$$

ILZ067-068-072-073-078-083-087-091-210700-
SOUTHEAST ILLINOIS

CITY           SKY/WX    TMP DP  RH WIND       PRES   REMARKS
LAWRENCEVILLE  CLEAR     50  45  83 W6        29.99S
FLORA*         CLEAR     47  43  86 CALM      30.00S
FAIRFIELD*     CLEAR     46  44  93 CALM      29.99S
HARRISBURG*    CLEAR     48  44  86 CALM      30.02S
ROBINSON*      CLEAR     47  44  90 NW3       30.00S
CARMI*         CLEAR     48  45  90 W3        29.99S
$$

ABBREVIATIONS USED IN REMARKS
   TC - TEMPERATURE IN CELSIUS
  WCI - WIND CHILL INDEX
   HX - HEAT INDEX
  VSB - VISIBILITY
$$




USA.gov is the U.S. government's official web portal to all federal, state and local government web resources and services.